GEFSSGP_500_meanwind_024.txt.gz
Wind_Speed
7 8 9 9 10 9 11 11 10 9 8 8 8 8 8 9 9 8 7 6 6 6 6 5 5 4 4 3 1 2 5 7 9 10 11 11 12 12 13 14 15 15 15 15 14 14 14 14 14
6 6 7 7 8 9 9 9 8 8 7 7 7 7 8 8 8 8 8 7 7 7 7 7 7 6 5 4 4 3 3 5 7 8 10 11 12 13 14 14 15 15 16 16 15 15 15 15 15
5 5 6 7 8 9 8 8 8 8 8 8 7 7 7 7 7 7 7 7 7 7 8 8 9 9 8 8 7 6 6 6 6 7 8 9 10 11 12 13 14 15 15 16 16 16 15 16 16
6 7 8 9 10 9 8 8 8 9 10 10 10 8 8 8 8 8 8 8 8 8 8 8 9 10 10 11 11 10 10 9 9 8 8 9 9 10 11 11 12 13 14 15 16 16 16 16 16
9 10 11 12 12 12 11 11 11 11 12 12 13 13 11 11 11 11 10 10 9 9 9 9 9 9 10 12 13 14 14 13 13 12 12 11 11 11 12 12 12 12 13 15 15 16 15 15 16
13 14 15 15 15 15 14 14 15 15 15 15 16 17 16 16 15 14 14 13 13 12 11 11 10 10 10 11 12 14 15 16 16 16 16 15 15 15 15 14 14 14 14 15 16 16 16 16 16
16 16 17 17 17 17 16 17 18 19 19 19 19 20 20 19 19 19 18 17 17 16 15 14 13 13 12 12 12 13 14 16 17 19 19 19 18 18 18 18 18 18 18 18 18 18 18 18 18
18 18 18 19 19 20 18 19 20 21 22 22 22 22 22 21 22 22 22 21 21 20 19 19 18 17 16 15 14 14 14 14 16 17 19 20 21 21 21 21 21 21 22 22 22 22 22 22 21
20 20 20 21 22 22 22 20 22 21 23 24 24 24 23 22 22 23 23 24 24 23 23 22 22 21 21 20 18 17 16 16 16 16 17 18 19 21 22 22 23 24 24 25 25 26 26 26 25
22 21 21 23 23 24 25 25 24 23 22 26 27 26 24 23 22 22 23 24 24 25 25 25 25 24 24 24 23 22 21 20 19 19 19 18 18 19 21 22 23 23 25 26 27 28 29 29 29
23 22 23 24 25 25 27 28 28 26 24 28 29 28 27 26 25 24 24 24 24 24 24 25 25 25 25 25 25 25 25 25 25 24 23 22 21 21 22 22 23 23 23 25 26 28 29 31 31
26 25 25 26 27 27 29 30 30 28 27 31 31 31 30 29 29 28 27 27 25 24 24 24 25 24 24 24 25 25 26 27 28 28 27 27 26 26 26 26 26 25 25 25 26 26 28 29 31
28 28 28 29 30 31 32 33 33 28 31 32 32 33 33 32 33 33 32 30 28 27 26 25 25 25 25 25 25 25 26 26 27 28 29 29 30 30 30 30 30 29 28 28 28 28 28 29 30
32 32 31 31 33 34 35 34 34 32 33 32 33 34 35 35 36 36 35 33 32 30 29 28 26 27 28 28 28 28 28 27 27 27 28 29 30 31 32 33 33 33 33 32 32 31 31 31 31
35 36 34 34 37 38 38 35 35 35 34 32 33 34 36 38 39 38 37 35 34 33 32 31 30 30 30 31 31 32 31 31 30 29 29 30 30 31 32 33 34 36 36 36 35 35 34 34 34
40 41 40 39 40 40 42 41 36 36 36 33 33 35 37 39 41 40 38 36 36 36 35 35 34 33 33 33 34 34 34 34 33 33 33 33 33 33 33 34 35 37 37 37 38 37 37 37 37
44 45 46 45 44 44 43 44 39 36 37 36 34 36 39 41 41 40 39 38 37 37 37 38 37 37 36 36 36 36 36 36 35 36 36 36 36 37 36 37 38 39 39 39 39 38 39 40 40
47 48 49 49 47 49 49 46 44 41 39 38 37 38 40 40 39 39 39 39 38 38 38 39 39 39 39 38 37 37 37 37 37 37 38 38 39 40 41 40 41 41 40 40 40 40 41 41 41
50 51 52 51 50 52 52 51 50 48 46 42 40 41 41 39 38 38 39 39 39 39 39 39 39 39 39 39 39 39 39 39 39 40 40 40 41 42 43 44 44 43 42 43 42 42 42 42 42
51 52 52 53 52 53 53 53 52 50 48 45 44 43 43 41 40 40 40 40 41 41 40 40 40 40 40 41 40 40 41 42 42 42 42 42 43 44 45 46 46 46 45 46 46 45 45 44 44
49 50 51 52 52 53 54 56 54 52 51 50 48 45 43 42 42 42 42 43 43 44 44 44 44 44 44 44 44 44 44 44 44 44 44 44 44 45 46 48 49 48 48 48 49 48 48 47 47
46 47 48 50 51 53 53 57 55 55 57 58 56 51 47 45 44 43 43 44 45 46 47 47 48 48 48 49 49 49 49 49 49 48 48 48 48 48 49 49 50 51 50 51 51 51 50 50 50
46 47 47 48 51 54 54 57 60 60 61 61 60 57 54 51 48 46 45 44 45 46 47 49 50 52 53 53 54 54 54 54 54 54 53 53 53 53 53 53 53 54 54 54 54 53 52 53 53
47 49 51 51 53 57 56 58 60 61 61 61 61 60 58 55 51 47 44 46 48 49 50 52 54 55 57 58 59 59 59 59 59 59 59 59 58 58 58 58 58 58 58 58 58 57 56 56 56
49 50 53 55 57 58 58 61 62 61 61 62 62 62 60 56 51 48 46 48 51 53 55 57 58 59 60 61 62 63 63 64 64 64 65 65 64 64 64 64 64 64 64 64 64 63 62 62 62
52 52 52 55 58 59 58 60 60 60 62 63 63 62 60 58 54 52 52 53 57 59 61 62 62 63 63 64 65 65 66 67 67 68 68 69 68 68 68 68 68 69 69 69 69 69 69 68 68
52 51 52 54 56 58 60 60 59 59 60 62 62 62 61 59 58 57 58 60 63 65 66 66 66 66 65 66 66 67 68 69 69 70 71 71 71 71 71 71 71 72 73 73 73 73 74 73 73
51 50 50 52 55 58 58 57 58 59 60 60 60 61 62 63 63 64 64 66 68 69 70 70 70 69 68 68 68 68 69 70 70 71 72 73 73 74 74 74 74 74 75 76 77 77 77 77 77
50 50 51 53 55 57 58 56 56 57 58 59 60 61 63 65 66 68 69 70 71 72 72 73 72 71 71 71 72 72 72 72 72 72 73 74 75 76 76 76 77 77 78 78 79 79 80 79 79
51 51 52 54 57 57 59 58 54 55 57 59 60 62 63 65 67 68 70 71 72 72 74 74 75 75 75 76 76 76 77 77 77 77 77 77 78 79 79 79 80 80 80 81 81 82 82 82 81

GEFSSGP_500_meanwind_030.txt.gz
Wind_Speed
6 7 8 9 10 10 9 10 11 11 10 9 9 9 10 10 11 11 10 9 8 6 6 5 4 4 4 5 5 3 1 2 5 7 9 11 11 12 12 12 11 12 12 11 11 12 12 12 12
4 5 6 8 9 8 10 11 11 10 10 9 9 9 9 9 9 9 9 9 9 8 7 6 5 5 4 3 2 2 1 1 3 5 7 8 10 11 11 12 12 12 13 13 13 13 12 12 12
3 4 6 8 9 10 11 11 11 10 10 10 10 10 9 10 9 9 9 9 9 9 8 8 7 6 5 5 4 4 4 4 4 5 6 7 8 10 11 11 12 13 14 14 15 15 14 14 13
5 7 8 9 10 11 12 12 10 11 11 12 12 12 12 11 11 11 10 9 9 8 8 8 7 7 6 6 6 7 7 7 7 7 7 7 8 9 10 11 11 13 14 15 15 15 15 15 15
9 10 11 11 11 12 12 12 11 11 12 13 13 13 13 13 12 12 12 11 10 9 8 8 7 7 7 6 7 8 9 10 10 11 10 10 10 10 10 11 11 12 13 14 15 16 16 16 16
12 14 15 14 13 13 13 13 12 12 12 13 13 13 14 14 13 13 13 12 12 12 11 10 9 9 8 8 8 8 9 10 12 13 14 14 14 13 14 13 13 13 14 15 15 16 17 17 17
14 16 17 18 17 14 14 14 14 14 14 14 13 13 13 13 13 13 13 13 13 13 13 13 12 12 11 11 10 10 10 10 12 13 15 16 17 17 17 17 17 16 17 17 17 17 17 18 18
17 18 20 20 19 17 16 15 15 15 16 17 16 15 14 13 14 14 14 14 14 14 15 15 15 15 15 14 14 13 13 13 13 14 15 16 17 19 20 20 20 20 20 20 20 20 20 20 20
19 20 21 21 20 20 18 17 16 16 18 20 20 19 18 17 16 16 16 15 14 15 16 17 18 18 18 18 18 17 17 17 17 16 16 17 17 18 20 21 23 23 24 23 23 23 23 23 23
22 22 22 21 21 21 21 20 19 18 19 21 22 23 22 22 21 20 19 18 16 16 16 17 18 19 19 20 20 20 20 20 21 21 20 20 20 20 20 22 23 24 25 25 26 26 26 26 27
23 23 23 23 22 23 23 23 23 22 21 23 23 25 26 25 24 23 23 22 20 18 18 18 18 18 19 20 21 22 22 23 23 24 24 24 24 24 24 24 24 25 25 26 26 27 27 28 28
23 22 23 24 25 25 25 25 25 25 24 25 25 26 28 28 26 24 23 23 23 22 21 20 20 19 20 20 21 22 23 24 24 26 27 27 28 28 29 29 28 28 28 28 28 28 28 29 29
23 22 24 25 27 27 27 27 26 27 27 28 29 30 29 29 27 26 25 24 24 24 24 23 23 23 22 22 23 24 25 26 26 26 27 29 30 30 31 32 32 32 32 33 33 32 31 31 31
25 25 25 27 29 29 29 29 28 29 28 29 31 33 32 31 29 27 26 26 25 25 26 26 26 26 26 26 26 27 28 29 30 30 31 31 31 32 32 34 34 35 35 36 36 36 35 35 34
29 29 28 30 31 31 30 30 30 30 30 30 33 34 34 32 31 30 28 28 27 27 27 28 28 28 29 29 30 30 31 32 33 34 34 35 35 35 35 35 36 37 37 38 39 39 39 38 38
33 33 31 32 33 34 34 31 31 31 31 31 34 34 34 33 32 32 31 30 30 29 29 29 30 30 30 31 32 33 33 34 35 36 37 37 38 38 39 39 39 40 40 40 41 42 41 41 41
35 36 34 33 33 36 36 35 32 32 32 32 33 33 33 33 33 33 33 33 33 32 32 31 31 32 32 33 33 34 35 36 37 38 39 40 40 41 41 41 42 43 44 43 44 44 45 44 43
37 37 37 35 35 37 38 38 36 34 33 33 33 32 32 32 33 33 33 34 34 34 34 34 34 34 34 35 35 36 37 37 38 39 41 42 42 43 43 43 44 45 46 46 47 48 49 48 47
39 39 38 37 38 40 39 39 37 35 35 35 33 32 32 32 32 33 34 34 35 36 36 37 37 37 37 38 38 39 39 40 40 41 42 43 44 45 45 45 46 46 47 47 48 50 51 51 51
40 40 40 39 40 41 40 39 37 36 37 36 34 34 34 35 35 36 36 37 37 38 38 39 39 40 40 41 42 42 42 43 43 44 45 45 46 47 47 48 48 48 48 48 49 50 51 52 53
39 39 39 40 40 41 43 42 37 37 38 38 38 39 39 39 39 38 38 39 39 39 40 41 42 43 43 44 45 46 46 47 47 48 48 49 50 50 51 51 51 51 51 51 51 52 53 53 54
37 38 39 39 41 42 43 46 42 42 42 42 42 43 43 43 43 42 41 40 40 40 41 41 43 44 45 46 47 48 49 50 51 52 53 53 54 54 55 55 56 56 56 56 55 55 56 56 56
36 37 39 41 43 46 45 48 48 48 47 46 46 46 46 46 45 45 45 44 43 42 41 42 43 45 46 48 49 51 52 53 54 55 56 57 58 59 60 60 61 61 61 61 61 60 60 60 60
39 40 42 44 46 49 47 49 51 51 50 49 49 48 47 47 46 47 47 47 47 46 44 44 44 46 48 50 53 55 56 57 58 59 60 61 62 63 64 65 65 66 66 67 66 66 65 65 65
41 42 45 48 49 50 50 52 52 51 50 50 49 49 49 48 49 49 50 50 50 50 49 48 48 49 51 53 56 59 61 63 64 65 65 66 66 67 68 68 69 70 70 71 72 72 71 71 70
43 44 45 49 51 52 52 54 53 51 50 49 49 50 50 51 52 53 54 54 54 54 54 53 53 54 55 57 60 63 66 68 70 71 72 73 73 72 73 73 74 74 74 75 75 76 76 76 76
45 46 47 50 52 53 54 54 52 50 49 49 50 52 53 54 55 56 57 57 58 58 58 58 58 59 60 61 64 66 69 72 74 76 77 78 79 79 79 79 79 79 78 78 79 79 79 79 79
46 47 49 50 53 54 54 53 52 50 50 51 52 54 55 56 58 59 60 61 61 62 62 63 63 64 65 67 68 70 73 75 77 79 81 81 82 83 84 84 83 83 83 83 82 82 82 82 82
48 48 50 52 54 56 55 54 54 53 53 54 55 56 57 59 61 62 63 65 66 67 67 69 69 70 71 71 73 74 76 78 80 81 83 83 83 84 85 86 86 85 85 85 85 85 84 84 83
49 49 50 53 55 57 59 57 55 54 55 56 57 59 61 63 64 65 66 68 69 70 71 73 73 74 75 76 77 77 79 80 82 83 85 85 86 86 87 87 87 87 87 88 88 89 89 88 87

GEFSSGP_500_meanwind_036.txt.gz
Wind_Speed
8 9 9 10 11 12 12 11 11 11 11 11 12 12 12 12 12 12 12 11 10 9 8 7 6 5 5 5 5 4 3 1 2 3 5 6 7 7 7 8 8 9 9 9 9 10 10 10 10
6 7 8 9 11 11 11 11 11 11 11 11 11 11 11 12 11 11 11 10 10 9 8 7 6 5 4 3 3 3 3 2 1 1 2 3 4 5 7 7 8 9 10 10 11 11 10 10 10
4 5 7 9 10 11 11 12 11 11 10 10 10 11 11 11 11 10 10 9 9 9 8 7 6 6 5 4 3 2 2 2 1 1 2 3 4 5 6 7 8 9 10 11 12 12 12 12 12
4 6 8 10 11 11 11 11 12 11 10 10 10 10 11 11 11 10 10 9 9 8 8 7 6 6 5 4 4 4 4 4 4 4 5 5 5 6 7 8 9 9 10 11 12 13 13 14 14
5 8 9 11 12 12 12 12 12 11 11 10 10 10 10 10 11 11 10 10 9 9 8 8 7 6 6 5 5 5 5 6 7 7 8 8 8 9 9 10 10 11 11 12 13 14 14 15 16
8 10 11 12 13 14 13 13 12 11 11 10 10 9 9 10 11 11 11 11 11 10 10 10 9 9 8 8 7 7 7 7 8 9 10 11 11 12 13 13 14 14 14 14 15 15 16 16 17
11 13 14 14 14 15 15 14 13 12 12 11 10 10 10 10 11 12 12 13 12 12 12 12 12 11 11 11 11 10 10 10 10 11 11 12 13 14 15 16 17 17 17 17 18 18 18 18 19
14 16 17 17 16 16 15 15 14 14 14 13 12 11 11 11 11 12 13 14 14 13 13 13 13 13 13 13 13 14 14 14 14 14 14 15 15 16 17 18 19 20 21 21 21 21 21 21 21
18 19 20 19 18 17 16 15 15 15 16 16 15 14 13 13 13 13 14 14 14 14 14 15 15 15 15 15 16 16 17 17 18 18 18 19 19 19 19 20 21 22 23 24 24 24 25 25 25
21 22 22 21 20 19 17 16 16 17 18 18 17 16 15 14 14 14 14 15 15 15 16 17 17 17 17 18 18 19 19 19 20 21 22 22 23 23 23 23 23 24 24 25 25 26 27 27 28
24 24 24 23 21 20 18 17 17 18 19 19 20 19 17 17 17 16 16 16 17 17 17 18 19 20 21 21 21 22 22 22 23 24 25 25 26 26 27 27 27 27 27 28 28 28 28 29 30
26 25 24 23 22 20 20 20 20 21 20 21 21 21 21 20 20 19 18 18 19 19 20 20 21 22 23 24 25 25 26 26 26 27 27 27 28 28 29 30 31 31 31 31 31 32 31 31 32
26 25 24 24 23 22 22 22 22 24 23 24 23 23 23 23 23 22 21 21 21 22 22 23 23 24 25 26 27 28 29 30 30 30 30 30 31 31 32 32 33 34 34 35 36 36 35 35 36
25 24 24 25 25 25 24 25 26 26 26 26 26 26 25 25 25 24 23 23 23 24 25 25 25 26 26 27 29 30 32 33 33 34 35 35 35 35 35 36 36 37 37 37 38 38 39 39 39
27 26 25 27 27 27 26 27 28 28 28 28 28 27 27 27 26 26 25 25 25 26 27 27 28 28 29 30 30 31 33 34 35 37 38 38 39 39 39 39 40 41 41 41 41 41 41 42 42
30 29 28 28 28 28 28 27 29 29 29 28 28 28 29 28 28 28 27 27 27 28 28 29 29 30 30 31 32 34 35 36 37 38 39 41 42 43 43 44 44 45 45 45 45 45 45 45 45
31 30 29 28 29 30 30 27 29 30 29 29 29 29 30 30 30 29 28 28 29 29 29 30 30 31 32 33 34 35 36 37 38 40 41 42 44 45 46 47 48 48 49 49 49 49 49 49 48
33 31 29 29 31 32 32 29 30 31 31 30 30 30 30 30 30 30 30 30 30 30 31 32 32 33 34 35 36 37 38 39 40 42 43 44 46 47 48 50 51 52 52 53 53 53 53 53 52
34 34 32 31 34 35 34 32 31 31 31 31 30 30 30 30 31 31 32 32 33 34 34 35 36 37 38 39 39 40 41 42 43 44 46 47 48 49 51 52 53 54 55 56 56 57 57 57 57
37 37 36 36 37 37 35 33 31 31 31 30 30 30 30 31 32 33 34 35 36 37 38 39 39 40 41 42 43 44 45 46 46 48 49 50 51 52 54 55 56 57 58 58 58 59 59 60 60
39 39 39 39 38 37 36 34 31 30 30 31 31 32 32 34 35 36 37 38 40 41 41 42 42 43 44 45 46 47 48 49 50 51 52 54 55 56 58 59 60 61 61 62 62 62 62 62 63
40 39 39 39 38 37 37 36 31 30 32 33 34 35 36 37 39 40 41 41 42 43 44 45 45 45 46 47 48 50 51 52 53 54 55 57 58 60 62 63 64 65 66 66 66 66 67 66 66
40 38 38 39 39 39 37 37 36 34 34 35 36 38 39 40 41 42 43 44 45 46 47 47 48 48 49 49 50 52 53 55 56 57 58 60 61 63 65 66 67 68 69 70 71 71 71 71 71
39 38 39 39 39 40 37 39 41 40 39 39 40 41 42 43 44 45 46 48 49 49 50 50 51 51 52 52 53 55 56 57 59 60 61 63 64 66 68 70 71 72 73 74 75 75 76 76 76
38 38 40 41 41 41 41 43 44 44 44 44 44 45 45 46 47 48 50 51 52 53 54 55 55 56 57 57 58 59 60 61 62 63 65 66 68 70 72 74 75 77 78 79 80 80 80 80 80
40 40 41 42 44 44 45 47 47 47 47 47 47 47 48 49 50 52 54 55 56 58 59 60 61 61 62 63 63 64 64 65 65 66 67 69 71 73 76 78 80 81 82 83 84 84 85 85 85
42 42 42 45 47 48 50 50 50 50 49 49 49 50 50 51 52 55 57 59 60 61 63 64 65 66 67 68 68 69 69 69 70 70 71 73 74 76 78 80 82 84 86 87 88 88 89 89 88
44 44 45 47 49 52 53 53 54 53 52 51 51 51 52 53 56 58 60 62 64 65 66 68 69 70 71 72 72 73 73 73 74 74 75 76 77 78 79 80 82 85 87 89 91 91 92 92 92
46 48 49 50 53 54 55 56 57 56 54 53 52 53 54 56 59 62 64 65 67 68 70 71 72 73 74 75 76 76 77 77 78 78 78 79 80 80 81 82 84 85 87 88 90 92 93 94 95
51 50 50 52 53 54 58 60 59 56 54 53 54 56 58 61 63 65 66 67 69 71 72 74 75 76 77 78 78 79 79 79 80 80 80 81 82 83 85 85 86 87 89 90 91 92 93 94 95

GEFSSGP_500_meanwind_042.txt.gz
Wind_Speed
10 10 11 12 12 13 12 11 11 11 11 10 10 10 10 9 9 9 10 10 10 10 9 7 6 6 5 5 4 3 2 3 5 7 8 10 10 11 11 11 11 10 10 10 10 11 11 11 11
8 8 9 10 11 11 10 10 10 9 9 9 9 9 9 9 8 8 8 8 9 8 8 7 6 5 4 3 3 2 1 2 3 4 6 7 8 9 10 11 11 11 10 10 11 11 12 12 12
6 6 8 9 10 9 9 8 8 8 8 8 8 8 8 8 8 8 7 7 7 6 6 6 5 5 4 3 2 1 0 1 2 3 4 5 6 7 8 9 10 10 11 11 12 12 13 14 14
4 5 7 8 9 9 8 7 7 6 6 6 7 7 7 7 7 7 7 7 6 6 5 5 5 4 4 3 3 3 3 3 3 4 5 6 6 7 8 9 9 10 11 11 12 13 14 14 15
2 4 6 7 9 9 8 7 6 5 5 5 5 5 6 6 6 6 7 7 6 6 5 5 4 4 5 5 5 5 5 6 6 6 7 8 8 9 9 10 10 11 12 12 13 13 14 15 15
2 4 6 8 9 9 9 8 6 5 4 4 4 4 5 5 5 5 5 5 5 5 5 5 5 5 5 6 7 7 8 8 9 9 10 10 11 11 12 12 13 13 14 14 14 15 16 16 17
5 6 8 9 10 11 10 9 7 5 4 3 3 5 5 6 6 6 6 6 6 6 6 6 6 6 7 8 9 9 10 11 11 12 12 13 13 14 14 14 15 15 16 17 17 18 18 18 18
8 10 11 12 12 12 12 10 8 6 5 5 5 6 7 7 7 8 8 8 8 9 9 10 10 10 10 10 11 12 12 13 14 15 15 16 16 17 17 17 17 18 18 19 19 20 21 21 21
12 13 14 15 15 14 13 12 11 9 7 7 7 7 8 8 9 9 10 10 10 11 12 12 13 13 13 14 14 14 15 15 16 17 18 19 19 20 20 21 21 21 21 22 22 22 23 23 24
15 17 18 18 17 16 15 13 12 11 10 9 9 9 10 10 11 11 12 13 13 13 14 14 15 15 16 17 17 17 18 18 19 19 20 21 22 22 23 24 24 25 25 25 26 26 26 26 26
19 20 20 20 19 18 16 15 14 13 13 12 12 12 12 13 13 13 14 14 15 15 16 16 17 17 18 18 19 20 20 21 21 22 22 23 24 24 25 26 27 27 28 29 29 30 30 30 30
21 22 22 21 20 19 17 16 15 15 15 15 15 14 14 15 15 15 15 15 16 16 17 18 18 18 19 19 20 21 21 22 23 24 25 26 27 27 28 29 29 30 31 31 32 33 33 34 34
24 24 23 22 21 20 19 18 17 17 17 17 18 17 17 17 16 16 17 17 17 17 17 18 19 19 20 20 21 22 22 23 24 25 26 28 29 30 31 32 32 33 34 34 35 35 36 37 38
26 26 25 24 23 21 21 21 20 19 19 19 19 19 19 19 18 18 18 18 18 18 18 18 19 19 20 21 22 22 23 24 25 27 28 29 31 32 33 34 36 37 37 38 38 39 39 40 41
29 28 27 26 25 24 24 23 22 22 21 21 21 21 21 20 19 19 19 19 19 19 19 19 20 20 21 21 22 23 24 25 26 28 29 31 32 34 35 37 38 39 41 42 43 43 44 44 45
30 29 28 27 27 26 26 25 25 24 23 23 23 23 22 22 21 21 20 20 20 20 20 20 20 20 21 22 23 25 25 26 28 29 30 32 33 35 37 38 40 42 43 45 46 47 48 48 49
32 31 28 28 28 28 28 27 27 26 25 25 25 25 25 24 23 23 22 22 22 21 21 21 21 22 23 24 25 27 28 29 30 32 33 35 36 38 40 41 43 44 46 48 49 50 51 51 52
33 31 29 29 29 30 30 29 29 28 27 27 27 27 27 26 25 25 24 23 22 22 22 23 23 24 26 27 28 30 31 33 34 35 37 39 40 42 43 45 46 48 49 51 52 53 54 55 56
33 32 30 30 32 32 32 31 31 30 29 29 29 29 28 27 27 26 25 24 24 24 24 25 26 27 28 30 31 33 35 36 38 39 41 43 44 46 47 49 50 52 54 55 56 57 58 59 60
34 33 31 33 35 35 35 33 32 31 31 32 31 30 29 28 27 26 26 26 26 26 27 28 29 31 32 33 35 36 38 40 42 43 45 47 49 50 52 54 55 57 58 60 61 61 62 63 64
36 35 35 38 38 38 38 37 33 33 33 33 32 31 30 28 27 27 27 28 28 29 30 32 33 34 36 37 39 40 42 43 45 47 49 51 53 55 57 59 60 61 62 63 64 65 66 67 67
39 37 39 40 41 41 41 41 34 32 33 32 31 31 30 29 29 29 29 30 31 32 34 35 37 38 40 41 42 44 45 47 49 50 53 55 57 59 61 63 64 66 66 67 68 69 69 70 71
42 41 42 43 44 45 43 43 38 32 32 32 31 31 30 30 31 31 32 33 34 36 37 39 40 42 43 45 46 48 49 51 53 55 57 59 61 63 65 66 68 69 70 71 72 73 73 74 75
45 45 45 46 47 48 42 42 42 33 30 31 31 31 32 33 33 34 35 36 38 39 41 42 44 45 47 48 50 51 53 54 56 59 61 63 64 66 68 70 71 73 73 74 75 76 77 78 78
46 46 47 48 48 48 42 42 41 35 32 31 31 33 34 35 35 36 38 40 41 43 44 46 47 49 50 51 53 54 56 58 61 63 65 66 68 70 72 74 75 76 77 78 79 79 80 80 81
47 47 47 47 48 46 44 43 39 36 33 32 33 35 36 37 38 40 41 43 45 46 48 49 51 52 54 55 57 58 60 63 65 67 69 70 72 74 76 77 77 78 79 80 81 81 82 82 83
47 46 43 45 46 46 45 42 39 36 35 36 37 38 38 39 41 43 45 47 48 50 51 52 54 56 57 59 61 63 65 67 68 71 73 74 76 77 78 79 80 80 80 81 81 81 82 82 83
45 43 43 44 45 45 45 42 40 38 39 40 41 41 42 43 45 47 49 51 52 53 54 56 58 59 61 63 64 66 68 70 72 74 75 77 78 79 80 81 81 81 81 81 81 81 81 82 82
42 43 43 44 45 46 45 44 44 45 45 44 44 44 46 48 50 52 53 55 55 56 58 59 61 62 64 65 67 70 72 73 75 77 78 79 81 81 81 81 81 81 81 81 81 81 82 82 83
45 45 45 45 45 45 47 49 50 49 49 48 48 49 50 52 54 55 56 57 58 59 60 62 63 65 66 68 70 72 74 76 77 79 80 81 81 82 82 82 82 82 82 82 83 83 84 84 85

GEFSSGP_500_meanwind_048.txt.gz
Wind_Speed
8 9 10 10 9 13 12 9 8 8 8 8 8 8 8 9 9 9 8 9 9 9 9 8 7 7 6 6 6 5 4 2 2 2 3 5 6 6 7 7 8 9 9 10 10 10 10 10 10
7 7 8 8 8 12 9 8 7 6 6 7 7 7 8 8 8 7 7 7 7 8 7 7 7 7 7 6 6 5 5 4 3 3 3 3 4 4 5 6 7 8 8 9 9 10 10 10 10
5 6 7 7 10 10 7 6 5 5 4 4 5 5 5 6 6 6 5 5 5 5 5 5 5 6 6 6 6 5 5 4 4 4 4 4 4 4 5 6 6 7 8 9 9 10 10 11 11
3 4 5 6 9 9 7 6 5 4 3 2 2 3 3 4 4 4 4 4 3 3 3 3 3 3 4 4 4 4 4 4 4 4 4 5 5 5 6 6 7 7 8 9 9 10 11 11 12
2 1 3 5 7 7 7 6 5 5 4 3 3 2 2 2 2 2 3 3 3 3 3 3 3 3 3 3 3 3 4 4 4 4 5 5 5 6 7 7 8 8 9 10 11 11 12 12 13
2 1 3 5 6 6 7 7 7 6 6 6 5 4 4 3 3 3 3 4 4 4 4 4 4 4 4 5 5 5 5 5 6 6 6 6 7 7 8 9 9 10 11 12 12 13 14 15 15
4 4 5 6 7 7 8 8 8 8 7 8 7 6 6 5 5 5 5 6 6 6 6 6 6 6 6 6 6 6 7 7 7 8 8 9 9 9 10 11 11 12 13 13 14 15 16 17 18
7 7 8 9 10 10 10 10 10 10 9 10 9 8 8 7 7 7 7 8 8 8 8 8 8 8 8 8 8 8 8 8 9 9 10 10 10 11 11 12 13 14 15 15 16 17 18 19 20
10 10 11 12 13 13 13 13 12 12 11 12 11 10 10 10 9 9 9 10 10 10 10 11 10 10 10 10 10 9 10 10 10 10 11 12 12 12 12 13 14 15 16 17 18 19 20 21 21
14 14 14 15 16 16 15 15 14 14 13 13 13 13 12 12 12 12 12 12 12 13 13 13 13 13 12 12 11 11 11 11 12 12 13 14 14 14 14 14 16 17 18 19 20 21 22 23 24
17 17 18 18 18 18 18 17 16 16 14 14 15 15 14 14 14 14 14 14 14 15 15 15 15 15 14 14 14 13 13 13 14 14 15 15 16 16 16 16 17 19 20 21 22 23 24 25 26
20 20 21 21 21 21 20 19 19 17 16 16 16 17 17 17 17 16 16 16 16 16 16 16 16 16 16 16 15 15 15 15 16 16 17 17 18 18 18 19 20 21 22 23 24 25 26 27 29
22 23 24 24 23 23 23 22 20 18 18 18 18 18 19 19 19 19 19 19 18 18 18 18 18 17 17 17 17 17 17 18 18 18 19 19 20 21 21 22 22 23 24 25 26 27 29 30 31
25 26 26 26 26 26 26 24 22 20 21 21 20 20 21 21 21 21 21 20 20 20 19 19 19 19 19 19 19 19 19 19 19 20 20 21 22 23 23 24 25 25 26 28 29 30 32 33 34
28 28 28 28 29 28 29 26 24 23 24 24 23 22 22 22 22 22 22 22 22 21 21 21 21 21 21 21 21 21 21 21 21 21 22 23 24 25 25 26 28 29 30 31 32 34 35 36 38
30 31 31 31 31 30 31 28 27 25 26 26 25 24 24 24 24 23 23 23 23 23 23 23 23 23 23 23 22 22 22 22 22 23 24 24 25 27 28 29 31 32 33 35 36 37 39 40 42
32 33 33 34 32 32 33 31 29 28 29 28 27 26 26 26 25 25 25 25 25 26 26 26 26 25 25 24 24 23 23 24 24 25 26 27 28 30 31 32 34 35 37 38 40 41 43 44 46
35 36 34 35 35 32 33 34 33 30 31 29 28 28 28 28 28 28 28 28 28 28 28 28 28 27 26 26 25 25 25 26 27 28 29 30 31 32 34 35 37 38 40 42 43 45 47 49 51
37 37 34 34 37 35 35 35 35 33 32 31 30 30 30 30 30 31 31 31 31 30 30 30 29 28 28 27 27 27 28 29 29 30 32 33 34 36 37 39 41 42 44 46 48 50 52 54 55
37 36 34 34 38 37 37 37 36 35 32 33 33 32 32 32 33 33 33 33 33 32 32 31 30 30 30 29 29 29 30 31 32 33 35 36 38 39 41 43 45 47 49 51 53 55 57 58 60
37 37 35 36 40 40 40 40 37 36 35 33 34 35 35 35 35 36 35 35 34 34 33 32 32 32 31 31 31 32 33 34 35 37 38 40 41 43 45 46 49 51 53 55 57 59 61 63 65
39 38 38 38 41 44 44 46 38 36 36 34 34 37 39 37 37 37 37 36 35 35 34 33 33 33 33 33 34 35 36 37 39 40 42 44 46 47 49 51 53 55 57 59 61 63 65 67 69
41 40 40 41 44 48 47 49 44 38 37 34 34 38 41 40 39 38 38 37 36 36 35 35 35 35 35 36 37 38 39 41 43 44 46 48 50 51 53 55 57 59 61 63 65 67 69 70 72
42 41 44 46 48 53 47 50 51 43 39 36 36 39 41 41 39 38 37 37 37 36 36 36 37 37 38 39 40 42 43 45 47 48 50 52 53 55 57 59 61 63 65 66 68 70 72 74 76
44 44 47 51 52 54 51 52 52 47 42 38 37 38 40 39 38 37 37 37 37 37 37 38 39 39 41 42 44 46 47 49 51 53 54 56 57 59 61 63 65 66 68 70 72 74 76 77 79
47 48 50 53 55 56 55 54 50 47 42 37 35 36 37 37 36 36 36 37 37 38 39 40 41 42 44 45 47 49 51 53 55 56 58 59 60 62 64 66 68 69 71 73 75 77 79 80 82
52 52 50 53 57 58 57 54 50 45 41 36 34 34 34 34 34 34 35 36 37 39 40 42 43 45 47 49 51 53 55 56 58 59 60 61 63 65 67 69 71 72 74 76 78 79 81 82 83
55 55 54 56 58 60 57 54 50 45 40 36 32 31 31 31 32 33 34 36 38 40 42 44 46 48 50 52 54 56 58 59 60 61 63 64 66 68 70 71 73 75 77 78 80 81 83 84 85
55 56 56 57 58 58 57 52 49 46 42 36 32 30 30 31 33 35 37 39 41 42 44 47 49 51 53 55 57 59 60 61 62 64 65 67 69 70 72 73 75 77 79 80 81 83 84 85 86
58 57 56 55 54 53 53 51 49 47 43 38 35 33 33 35 36 38 40 41 43 45 47 50 52 54 56 58 59 61 62 63 64 66 68 69 71 73 74 76 77 79 80 81 83 84 85 85 86